Flag Weather past 2 weeks in Stans, Nidwalden, Switzerland

Now
43 °F

Quite cool.


Feels Like: 43 °F
Forecast: 39 / 55 °F
Wind: 1 mph from Northwest

Location: Giswil

Current Time: Nov 27, 2014 at 11:10:13 PM

Latest Report: Nov 27, 2014 at 10:00 PM


Visibility: N/A

Pressure: 29.83 "Hg

Humidity: 100%

Dew point: 43 °F

Location of StansLocation

Historic Weather in Stans — Graph

°F

Stans temperature yesterday

Maximum temperature yesterday: 49 °F (at 3:00 PM)
Minimum temperature yesterday: 43 °F (at 6:00 PM)
Average temperature yesterday: 47 °F

Past Weeks' High & Low Weather Summary

 TemperatureHumidityPressure
High57 °F (Nov 24, 3:00 PM)100% (Nov 12, 9:00 PM)30.33 "Hg (Nov 12, 9:00 PM)
Low30 °F (Nov 20, 2:00 AM)69% (Nov 19, 2:00 PM)29.59 "Hg (Nov 15, 6:00 PM)
Average43 °F98%30.00 "Hg
* Reported Nov 12 9:00 PM — Nov 27 9:00 PM, Stans, Weather by CustomWeather, © 2014

Note: Actual official high and low records may vary slightly from our data, if they occured in-between our weather recording intervals... More about our weather records

Advertising

Stans weather history for previous 24 hours

 ConditionsComfort  
Time TempWeatherWind HumidityBarometerVisibility
9:00 PM
Nov 27
44 °FQuite cool.1 mph100%29.81 "HgN/A
8:00 PM44 °FQuite cool.1 mph100%29.81 "HgN/A
7:00 PM45 °FQuite cool.1 mph100%29.82 "HgN/A
6:00 PM45 °FCool.1 mph100%29.80 "HgN/A
5:00 PM45 °FCool.1 mph100%29.80 "HgN/A
4:00 PM46 °FCool.1 mph100%29.79 "HgN/A
3:00 PM46 °FCool.2 mph99%29.80 "HgN/A
2:00 PM46 °FCool.1 mph97%29.80 "HgN/A
1:00 PM46 °FCool.1 mph99%29.81 "HgN/A
12:00 PM46 °FCool.2 mph100%29.82 "HgN/A
11:00 AM45 °FCool.1 mph100%29.84 "HgN/A
10:00 AM45 °FQuite cool.No wind100%29.83 "HgN/A
9:00 AM45 °FQuite cool.1 mph100%29.83 "HgN/A
8:00 AM45 °FQuite cool.1 mph100%29.82 "HgN/A
7:00 AM45 °FQuite cool.2 mph100%29.83 "HgN/A
6:00 AM45 °FCool.2 mph100%29.84 "HgN/A
5:00 AM46 °FCool.1 mph100%29.84 "HgN/A
3:00 AM46 °FCool.2 mph100%29.87 "HgN/A
2:00 AM46 °FCool.2 mph100%29.88 "HgN/A
1:00 AM47 °FCool.1 mph100%29.90 "HgN/A
12:00 AM47 °FCool.No wind100%29.90 "HgN/A
11:00 PM
Nov 26
47 °FCool.No wind100%29.92 "HgN/A
Weather by CustomWeather, © 2014

See weather overviewHow to use our weather pages